Starlink 11343

operational
NORAD ID: 62017 Int'l Des: 2024-213 Owner: SPXS Country: US Constellation: starlink
LEOCIRCULAR

About Starlink 11343

Description loading...

Live Position

Loading 3D Globe...

Upcoming Passes

Altitude History

Altitude vs Time

uPlot chart will show altitude changes over time

Two-Line Element Set

1 62017U 24213K 25306.35098126 .00191945 00000-0 15478-2 0 9994
2 62017 53.1566 309.1121 0001477 90.9308 269.1879 15.69787788 54916
Epoch: Nov 2, 2025 • Age: 11 hours

Current Status

Altitude 359.0 km
Velocity 7.70 km/s
Sub-Earth Point 19.94°N, 132.13°E
Launch Date Nov 18, 2024
Age 0.9 years
Type internet

Technical Details

Classification Payload
Mass 960.00 kg
Dry Mass 910.00 kg
Total Mass 960.00 kg
Length 0.30 m
Diameter 4.10 m
Span 29.00 m
Shape Box + pan
Manufacturer SPXS
Bus Type Starlink V2MD
Phase Status In Orbit
Owner/State SPXS/US

Large Constellations

Loading constellations...